Temperature
6 7 7 7 7 7 7 7 7 7 7 7 7 7 7 7 7 7 7 7 7 7 7 7 7 7 7 7 7 7 7 7 7 7 7 8 8 8 8 8 8 8 9
6 6 6 6 6 6 7 7 7 7 7 6 6 6 6 6 6 6 6 6 7 6 6 6 7 7 7 7 7 7 7 7 6 6 6 6 7 8 8 8 8 8 8
5 5 6 6 6 6 6 6 6 6 6 6 6 5 6 6 6 6 6 6 6 6 6 6 6 6 6 6 6 6 6 6 6 6 5 5 5 6 7 7 7 7 7
4 5 5 5 5 5 5 5 5 6 5 5 5 5 5 5 5 5 6 6 6 6 6 6 6 6 6 5 5 5 6 6 6 5 5 5 5 5 5 6 6 7 7
4 4 5 5 5 5 5 5 5 5 5 5 5 5 5 5 5 5 5 5 5 5 5 5 5 5 5 5 5 5 5 5 5 5 5 5 5 5 4 4 5 6 6
3 4 4 4 4 4 4 4 4 4 4 4 4 4 4 4 4 4 4 4 5 5 5 5 5 5 5 5 5 5 5 5 5 5 5 5 4 4 4 4 4 4 5
3 3 3 3 4 4 4 4 4 4 4 4 4 4 4 4 4 4 4 4 4 4 4 4 4 4 4 4 4 4 4 4 5 5 5 4 4 4 4 4 4 4 4
2 3 3 3 3 3 3 3 3 3 3 3 3 3 3 3 3 3 3 3 3 3 4 4 4 4 4 4 4 4 4 4 4 4 4 4 4 4 4 4 4 4 4
2 2 2 2 2 3 3 3 3 3 3 3 3 3 3 3 3 3 3 3 3 3 3 3 3 3 3 3 3 3 3 3 3 4 4 4 4 4 4 3 3 3 3
2 2 2 2 2 2 2 2 2 2 2 2 2 2 2 3 3 3 3 3 2 2 3 3 3 3 3 3 3 3 3 3 3 3 3 3 3 3 3 3 3 3 3
1 2 2 2 2 2 2 2 2 2 2 2 2 2 2 2 2 2 2 2 2 2 2 2 2 2 2 2 2 2 2 2 2 2 2 2 3 3 3 2 3 3 3
1 1 1 1 1 1 1 1 1 1 1 1 1 2 2 2 2 2 2 2 2 2 2 2 2 2 2 2 1 1 1 1 1 2 2 2 2 2 2 2 2 2 2
1 1 1 1 1 1 1 1 1 1 1 1 1 1 1 1 2 2 2 1 1 1 1 1 1 1 1 1 1 1 1 1 1 1 1 1 2 2 2 2 2 2 2
1 0 0 0 0 0 0 0 0 1 0 0 0 0 0 1 1 1 1 1 1 1 1 1 1 1 1 0 0 0 1 1 1 1 1 1 1 1 1 1 1 1 1
0 0 -0 -0 -0 -0 -0 -0 -0 0 -0 0 -0 -0 -0 0 0 1 1 1 1 1 1 0 0 0 0 0 0 -0 0 0 0 0 0 0 0 0 0 1 1 1 1
-0 -0 -0 -0 -1 -1 -1 -1 -1 -1 -0 -0 -0 -0 -0 -0 -0 -0 0 0 0 0 0 -0 -0 -0 -0 -0 -0 -1 -1 -0 -0 -0 -0 0 -0 -0 0 0 0 0 1
-0 -0 -1 -1 -1 -1 -1 -1 -1 -1 -1 -1 -1 -1 -1 -1 -1 -1 -1 -0 -0 -0 -0 -0 -0 -0 -1 -1 -1 -1 -1 -1 -1 -1 -1 -0 -0 -0 -0 -0 -0 0 -0
-0 -1 -1 -1 -1 -1 -1 -1 -1 -1 -1 -1 -1 -1 -1 -1 -1 -1 -1 -1 -1 -1 -1 -1 -1 -1 -1 -1 -1 -1 -1 -1 -1 -1 -1 -1 -1 -1 -1 -0 -0 -0 -0
-1 -1 -1 -1 -1 -1 -2 -2 -2 -2 -2 -2 -2 -2 -2 -2 -2 -2 -2 -2 -2 -1 -1 -1 -2 -2 -2 -2 -2 -2 -2 -2 -2 -2 -1 -1 -1 -1 -1 -1 -1 -1 -1
-1 -1 -1 -2 -2 -2 -2 -2 -2 -2 -2 -2 -2 -2 -2 -2 -2 -2 -2 -2 -2 -2 -2 -2 -2 -2 -2 -2 -2 -2 -2 -2 -2 -2 -2 -2 -2 -2 -2 -2 -2 -1 -1
-1 -2 -2 -2 -2 -2 -2 -2 -2 -2 -2 -3 -3 -3 -3 -3 -3 -3 -3 -3 -3 -3 -3 -3 -3 -3 -3 -3 -3 -3 -3 -2 -2 -2 -2 -2 -2 -2 -2 -2 -2 -2 -2
-2 -2 -2 -2 -2 -2 -2 -2 -3 -3 -3 -3 -3 -3 -3 -3 -3 -3 -3 -3 -3 -3 -3 -3 -3 -3 -3 -3 -3 -3 -3 -3 -3 -3 -3 -3 -3 -2 -2 -2 -2 -2 -2
-2 -3 -3 -3 -3 -3 -3 -3 -3 -3 -3 -3 -3 -3 -3 -3 -3 -3 -3 -3 -3 -4 -4 -4 -4 -4 -4 -4 -3 -3 -3 -3 -3 -3 -3 -3 -3 -3 -3 -3 -3 -3 -2
-3 -3 -3 -3 -3 -3 -3 -3 -3 -3 -3 -3 -3 -4 -4 -4 -4 -4 -4 -4 -4 -4 -4 -4 -4 -4 -4 -4 -4 -4 -3 -3 -3 -3 -3 -3 -3 -3 -3 -3 -3 -3 -3
-3 -3 -4 -3 -3 -3 -3 -4 -4 -4 -4 -4 -4 -4 -4 -4 -4 -4 -4 -5 -5 -5 -5 -5 -5 -5 -4 -4 -4 -4 -4 -3 -3 -3 -3 -3 -3 -3 -3 -3 -3 -3 -3
-3 -4 -4 -4 -4 -4 -4 -4 -4 -4 -4 -4 -4 -4 -4 -4 -4 -4 -4 -5 -5 -5 -5 -4 -5 -4 -4 -4 -4 -4 -4 -3 -3 -3 -3 -3 -3 -4 -4 -3 -3 -3 -3
Wind_Speed
4 3 2 2 2 2 2 2 3 3 2 1 1 1 2 2 2 3 4 4 3 3 3 3 2 2 2 3 3 2 2 1 0 2 3 4 4 5 4 4 4 5 5
3 3 3 2 2 2 3 2 2 3 2 2 2 2 2 2 2 3 4 4 3 4 4 3 3 3 2 3 3 2 2 1 1 1 1 3 4 2 3 3 4 5 4
3 3 3 2 2 3 3 3 3 3 3 2 1 2 1 1 1 2 2 3 4 4 4 4 4 3 4 4 4 3 3 3 2 2 2 2 3 3 3 4 4 4 4
3 3 3 3 3 3 3 3 4 3 3 2 1 2 2 3 3 3 3 3 4 4 4 4 4 4 4 4 4 4 3 4 3 2 2 3 3 2 3 3 3 4 4
3 3 3 3 3 4 4 3 3 4 3 2 2 2 3 3 3 3 3 3 3 3 3 3 3 3 4 4 4 4 4 4 4 3 2 3 3 4 4 5 5 4 4
3 3 3 3 3 4 4 3 3 4 4 3 3 3 4 4 4 4 3 3 2 2 3 3 3 3 3 4 4 4 4 4 4 4 4 4 3 3 4 5 6 6 5
3 3 3 3 4 4 4 4 3 4 4 4 4 4 4 4 5 4 4 3 3 3 3 3 3 3 3 4 3 3 4 4 4 4 5 5 5 4 4 5 5 6 6
3 3 3 3 4 4 4 4 4 5 4 4 5 4 4 4 4 4 4 4 4 4 3 4 3 3 3 3 3 3 4 3 4 5 4 4 4 4 4 4 4 6 6
4 4 3 3 4 4 5 5 5 5 5 5 5 4 5 5 4 4 4 4 3 3 3 3 4 3 3 3 3 3 3 3 4 4 4 4 3 4 4 4 4 5 7
5 5 4 4 4 4 5 5 5 5 5 5 5 5 5 4 4 4 5 4 4 3 3 3 3 3 3 3 3 3 3 3 4 3 3 3 3 3 3 4 4 4 6
5 5 5 4 4 4 4 5 5 5 5 5 5 5 5 4 4 4 4 4 3 2 2 3 3 3 3 3 3 3 3 3 3 3 3 4 3 3 3 3 4 4 4
5 5 5 4 4 4 5 5 5 5 5 5 5 5 5 4 4 4 4 3 3 2 2 3 3 3 3 3 3 4 3 4 4 4 4 4 3 4 3 3 4 5 5
5 5 4 4 5 5 5 6 5 5 5 4 4 4 4 4 4 4 4 3 2 2 2 2 3 3 3 3 3 4 4 4 4 4 4 4 4 4 3 4 4 4 5
5 5 5 5 5 5 6 6 6 5 5 4 4 4 5 4 4 4 4 3 2 2 2 2 3 3 3 3 3 3 3 3 4 4 3 3 4 4 4 4 4 4 4
5 5 5 5 6 6 6 6 6 5 5 4 4 4 4 4 3 4 4 3 3 2 1 2 2 2 2 3 2 2 3 3 3 3 3 4 4 5 4 4 3 3 3
6 6 6 6 6 6 6 6 6 5 5 4 4 4 4 4 4 4 4 3 3 2 1 1 2 2 2 4 4 3 2 2 3 3 3 3 4 4 5 5 5 3 3
7 7 6 6 6 6 5 6 5 5 4 4 4 4 4 4 4 4 4 4 3 2 2 1 1 2 3 4 4 5 3 2 3 3 3 3 3 4 2 4 4 4 4
6 6 6 6 6 5 5 5 4 4 4 4 4 4 4 4 4 4 4 4 3 2 2 2 2 2 3 4 4 5 3 2 2 3 3 3 3 3 3 2 3 3 3
5 5 5 5 5 5 4 4 3 3 4 4 4 4 4 4 4 4 4 3 3 3 2 2 2 2 3 4 3 4 1 2 2 3 3 2 2 4 4 3 3 3 4
4 4 4 4 4 5 4 3 3 3 4 4 4 4 3 3 4 4 3 3 2 3 3 3 2 2 3 4 3 4 1 1 2 3 3 4 4 3 4 2 2 3 4
4 4 3 3 4 4 3 2 3 3 4 4 4 4 4 3 3 3 2 2 3 3 3 3 3 3 3 4 5 5 2 1 2 2 2 2 4 5 5 4 3 3 3
4 3 3 4 4 3 3 2 3 4 3 3 3 4 4 4 3 3 3 2 2 2 2 3 3 3 3 4 5 6 5 4 1 2 2 2 5 6 6 5 4 4 4
3 3 3 4 4 4 2 2 4 3 3 3 3 3 4 4 4 3 3 2 2 2 2 2 3 3 3 4 6 6 6 6 3 2 3 4 5 5 4 5 5 4 2
3 3 3 4 5 4 3 3 3 2 2 2 3 3 3 4 4 3 3 2 2 2 2 2 3 3 3 3 3 3 3 4 3 2 2 4 5 4 4 4 4 3 2
3 3 3 4 5 5 3 3 2 1 2 2 2 3 3 3 3 3 3 3 2 2 2 2 2 3 3 5 7 4 3 2 2 1 1 2 2 2 3 3 3 3 2
3 3 4 4 5 4 3 2 2 1 1 2 2 2 2 2 2 3 4 6 5 6 6 5 5 4 5 7 7 7 6 6 4 3 2 2 2 2 3 3 3 3 3
Wind_Direction
289 310 316 335 1 3 353 336 326 314 311 304 284 265 265 266 269 278 273 267 272 274 245 241 222 217 219 227 217 222 227 243 257 320 312 300 269 252 247 238 240 247 248
327 341 344 352 357 341 329 324 315 314 301 280 272 250 249 253 250 280 285 275 275 268 250 226 226 221 225 231 218 210 215 247 191 226 299 306 305 273 253 244 243 249 250
303 316 328 329 337 332 320 316 309 312 311 303 306 306 300 302 285 286 270 282 285 274 250 236 226 223 213 220 224 215 214 225 245 216 210 239 261 304 276 248 249 253 259
310 308 319 327 328 315 317 320 320 316 315 321 299 271 264 267 273 274 261 275 291 283 260 246 236 226 223 220 226 227 226 208 227 240 242 244 243 255 295 289 265 262 260
311 309 312 312 321 320 320 321 320 326 322 310 294 277 272 267 282 286 275 276 286 286 278 254 244 237 236 230 230 232 231 227 224 230 246 256 264 244 248 278 290 285 267
318 320 326 337 338 336 332 329 328 323 322 309 293 284 275 275 285 280 272 275 277 272 279 276 255 243 242 237 234 229 228 240 237 236 237 236 234 232 239 258 277 284 285
316 319 327 333 332 331 328 326 320 315 314 310 295 280 274 262 258 260 262 268 280 279 276 283 270 264 253 245 240 239 237 238 239 238 243 242 247 240 242 253 272 282 287
318 314 308 312 314 316 319 319 314 309 307 302 295 284 276 265 258 256 259 260 263 262 259 265 266 269 265 259 247 246 246 245 248 251 250 248 254 246 241 241 257 279 284
317 314 311 314 313 312 308 303 306 306 303 299 295 293 287 276 271 270 266 269 268 264 248 257 264 271 265 255 246 248 255 249 253 252 254 253 259 254 253 249 246 251 274
322 322 316 316 311 305 304 307 304 296 298 300 298 299 287 282 276 270 269 270 265 255 248 256 266 270 264 255 249 260 255 260 268 263 253 255 251 251 258 255 259 252 259
311 315 318 311 312 312 312 309 309 305 306 306 304 304 301 298 293 275 266 268 268 257 253 254 258 262 261 256 253 262 267 266 274 274 260 264 258 248 254 258 259 260 257
300 304 312 322 322 320 318 312 310 307 307 311 314 311 309 309 302 291 280 276 270 259 255 257 258 260 261 253 250 257 259 257 262 266 265 272 275 261 251 253 257 261 259
312 318 322 323 324 325 325 323 320 313 315 318 318 317 315 310 307 308 306 296 281 270 264 257 263 265 264 256 251 250 253 254 261 265 262 272 273 275 268 258 257 262 264
307 313 313 313 316 319 322 324 322 318 320 323 323 317 307 304 309 318 311 304 295 279 266 267 266 262 259 254 253 262 271 273 277 276 271 270 266 265 264 265 261 263 264
307 306 309 312 315 320 324 326 321 322 325 328 322 310 307 313 321 325 316 311 305 297 286 285 280 273 263 257 258 267 280 285 293 289 279 275 278 277 271 271 263 260 261
303 307 313 316 315 317 320 323 319 323 328 324 317 318 324 327 326 326 324 322 314 308 296 283 288 295 298 308 316 308 282 285 285 285 293 294 290 288 291 289 284 278 270
299 302 305 306 306 310 314 314 313 321 325 322 326 328 327 327 329 330 327 324 316 319 311 299 289 287 292 311 320 324 308 288 283 287 298 305 305 310 298 302 310 313 304
298 299 301 303 307 309 314 315 316 322 324 326 330 330 328 327 329 326 327 329 332 332 326 315 303 299 299 321 330 335 330 320 304 294 285 288 300 303 307 310 315 311 308
289 291 293 295 303 309 315 322 324 329 332 332 331 328 325 325 328 327 328 325 331 336 329 315 310 301 298 320 339 351 330 322 316 310 305 306 296 308 320 319 316 319 322
299 300 305 308 310 313 321 326 326 335 330 326 326 329 328 325 322 318 321 329 335 334 332 333 333 317 303 319 348 352 315 322 321 312 307 314 320 321 327 323 310 309 314
307 312 313 312 308 313 324 324 327 321 318 329 338 342 339 328 321 328 332 337 343 345 342 345 338 328 326 334 344 343 341 315 310 314 315 323 337 334 331 328 320 315 317
320 322 322 316 318 319 319 311 309 311 325 340 348 347 342 338 341 346 339 337 350 0 357 358 347 344 339 342 345 348 347 338 304 300 307 321 336 337 339 341 346 339 334
311 322 319 316 320 321 313 292 302 319 337 351 351 345 345 344 342 340 335 336 345 358 351 355 350 345 345 344 353 350 348 347 342 321 334 340 341 342 348 356 352 344 345
309 317 318 313 313 318 315 290 304 329 350 347 343 348 350 345 345 343 340 340 339 341 341 350 347 341 339 338 339 338 342 348 341 339 354 358 358 359 356 351 351 347 344
298 299 295 296 301 308 309 310 318 346 356 344 347 348 346 341 345 349 344 339 326 321 329 323 322 328 332 334 343 347 342 337 345 7 30 22 7 6 358 349 346 346 347
287 292 294 294 298 303 306 313 320 331 354 343 344 339 336 343 351 354 359 0 358 357 0 358 350 343 342 340 347 350 351 353 5 23 30 12 357 347 340 336 339 343 343
Height
1472 1473 1472 1472 1471 1472 1472 1472 1472 1472 1472 1471 1470 1470 1470 1470 1470 1470 1470 1470 1471 1471 1471 1471 1471 1471 1471 1472 1472 1473 1473 1474 1474 1474 1473 1473 1474 1473 1473 1474 1474 1475 1475
1469 1469 1469 1469 1469 1469 1469 1469 1469 1469 1469 1468 1467 1467 1466 1466 1466 1466 1466 1466 1466 1466 1467 1466 1467 1467 1467 1468 1468 1469 1469 1470 1471 1471 1470 1469 1469 1467 1468 1468 1469 1469 1470
1466 1466 1466 1466 1466 1466 1466 1466 1466 1466 1465 1465 1464 1463 1463 1462 1462 1462 1462 1462 1462 1462 1462 1462 1462 1463 1463 1463 1463 1464 1464 1465 1466 1468 1468 1467 1464 1463 1462 1462 1463 1464 1464
1464 1464 1463 1463 1462 1463 1463 1463 1463 1462 1462 1461 1461 1459 1458 1458 1458 1458 1458 1458 1458 1458 1458 1458 1458 1458 1458 1458 1459 1460 1460 1461 1461 1462 1463 1464 1462 1462 1457 1456 1457 1458 1459
1463 1462 1461 1461 1461 1460 1460 1460 1460 1459 1459 1458 1457 1456 1455 1455 1455 1454 1454 1453 1453 1453 1454 1454 1454 1454 1454 1454 1455 1455 1455 1456 1456 1457 1457 1458 1458 1457 1456 1453 1451 1452 1453
1461 1460 1460 1459 1459 1458 1458 1457 1457 1456 1455 1455 1453 1452 1451 1451 1451 1450 1449 1449 1449 1449 1449 1449 1449 1449 1449 1449 1449 1450 1450 1451 1452 1452 1452 1453 1453 1452 1452 1450 1448 1446 1447
1460 1458 1458 1457 1456 1456 1455 1454 1454 1453 1452 1451 1450 1449 1448 1448 1447 1446 1446 1445 1444 1444 1444 1445 1445 1445 1445 1445 1445 1445 1445 1446 1446 1447 1447 1447 1448 1448 1448 1447 1444 1443 1442
1458 1457 1456 1455 1454 1454 1453 1452 1451 1449 1448 1447 1446 1446 1445 1445 1444 1443 1442 1441 1440 1439 1440 1440 1440 1440 1440 1441 1441 1441 1440 1441 1441 1441 1442 1442 1442 1443 1443 1442 1442 1439 1437
1457 1456 1455 1454 1453 1452 1451 1449 1447 1446 1445 1444 1443 1442 1441 1441 1440 1439 1439 1437 1436 1435 1435 1436 1436 1436 1436 1436 1436 1435 1435 1436 1435 1436 1436 1437 1437 1438 1438 1438 1439 1438 1434
1456 1455 1453 1452 1451 1450 1448 1446 1445 1443 1442 1441 1439 1438 1437 1437 1436 1435 1434 1433 1432 1431 1431 1431 1431 1431 1432 1431 1431 1431 1431 1431 1430 1431 1431 1432 1432 1433 1433 1433 1433 1433 1431
1455 1454 1452 1451 1449 1447 1445 1444 1442 1441 1439 1437 1436 1435 1434 1433 1432 1431 1431 1429 1428 1427 1427 1427 1427 1427 1427 1427 1427 1426 1426 1426 1426 1426 1426 1427 1427 1427 1427 1427 1428 1427 1427
1454 1452 1450 1449 1447 1445 1443 1441 1440 1438 1436 1434 1433 1432 1430 1429 1429 1428 1427 1425 1424 1424 1424 1424 1423 1423 1423 1423 1422 1422 1422 1422 1422 1422 1422 1422 1422 1422 1422 1422 1422 1422 1421
1452 1450 1448 1446 1444 1442 1441 1439 1437 1435 1434 1432 1430 1429 1427 1426 1425 1424 1422 1421 1421 1420 1420 1420 1419 1419 1419 1419 1419 1419 1418 1418 1418 1418 1418 1417 1417 1417 1417 1417 1417 1417 1416
1451 1449 1446 1445 1443 1441 1439 1437 1435 1433 1431 1429 1427 1426 1424 1423 1422 1421 1419 1418 1417 1416 1416 1416 1416 1415 1415 1415 1415 1415 1415 1415 1415 1415 1414 1414 1414 1414 1413 1413 1412 1412 1411
1449 1447 1445 1443 1441 1439 1437 1435 1433 1431 1429 1427 1425 1423 1422 1420 1419 1418 1417 1415 1414 1413 1413 1413 1412 1412 1412 1412 1412 1412 1412 1411 1411 1411 1411 1411 1411 1410 1410 1410 1409 1408 1407
1446 1445 1443 1441 1439 1437 1435 1433 1430 1429 1427 1424 1422 1421 1420 1418 1417 1415 1414 1413 1412 1411 1410 1410 1409 1409 1409 1409 1409 1409 1409 1409 1408 1408 1408 1407 1407 1407 1407 1406 1406 1405 1404
1445 1443 1441 1439 1437 1435 1433 1431 1429 1426 1424 1422 1420 1419 1418 1416 1415 1413 1412 1410 1409 1408 1408 1407 1407 1406 1406 1406 1406 1407 1407 1406 1406 1406 1405 1405 1405 1404 1403 1402 1402 1402 1402
1443 1441 1439 1437 1435 1433 1431 1429 1427 1424 1422 1420 1419 1417 1416 1414 1413 1412 1410 1408 1407 1406 1405 1404 1404 1403 1403 1404 1404 1404 1404 1403 1403 1403 1403 1402 1402 1401 1401 1400 1399 1398 1398
1440 1438 1437 1435 1433 1431 1429 1427 1425 1422 1420 1419 1417 1416 1414 1413 1411 1410 1408 1407 1406 1405 1404 1403 1402 1401 1401 1402 1402 1402 1401 1401 1400 1400 1400 1399 1399 1398 1398 1397 1396 1395 1395
1437 1435 1434 1432 1430 1428 1427 1425 1423 1421 1419 1417 1416 1415 1413 1411 1410 1408 1407 1405 1404 1403 1402 1401 1401 1400 1399 1399 1399 1400 1399 1398 1398 1397 1397 1397 1396 1396 1395 1395 1394 1393 1392
1434 1433 1431 1430 1428 1426 1425 1423 1421 1419 1418 1416 1415 1413 1412 1410 1409 1407 1406 1404 1403 1402 1401 1400 1399 1399 1398 1398 1398 1398 1398 1397 1396 1395 1394 1394 1394 1394 1393 1393 1392 1391 1390
1432 1430 1429 1427 1426 1425 1423 1421 1419 1418 1417 1415 1413 1412 1410 1409 1407 1406 1405 1403 1402 1400 1399 1399 1398 1398 1397 1397 1396 1396 1396 1395 1394 1393 1392 1392 1392 1392 1391 1390 1390 1389 1388
1430 1428 1427 1425 1424 1423 1421 1419 1418 1417 1415 1414 1412 1411 1409 1408 1406 1405 1404 1402 1401 1399 1398 1398 1397 1396 1396 1396 1395 1395 1394 1394 1393 1391 1391 1390 1390 1390 1389 1388 1388 1387 1386
1428 1426 1425 1423 1422 1421 1419 1418 1416 1415 1414 1412 1411 1409 1408 1407 1405 1404 1403 1401 1400 1399 1398 1397 1396 1396 1395 1395 1394 1393 1393 1392 1391 1390 1390 1389 1388 1388 1387 1387 1386 1386 1385
1426 1424 1423 1422 1420 1419 1418 1416 1415 1414 1412 1411 1410 1409 1407 1406 1404 1403 1402 1401 1400 1399 1398 1397 1396 1395 1394 1394 1394 1393 1392 1391 1390 1389 1388 1387 1386 1386 1385 1385 1385 1384 1383
1423 1422 1421 1420 1418 1417 1416 1415 1414 1413 1411 1410 1409 1408 1406 1405 1404 1402 1401 1401 1400 1399 1398 1397 1396 1395 1394 1393 1392 1391 1391 1390 1389 1388 1387 1386 1385 1385 1384 1384 1383 1383 1382